Location: Fenton
(44.3980°N, 108.5746°W)
Time: 06:07:07
(UTC+00:00)

X-37B - Visible Passes

Search period start: 25 January 2022 00:00
Search period end: 04 February 2022 00:00
Orbit: 334 x 337 km, 45.0° (Epoch: 11 January)

Date Brightness Start Highest point End Pass type
(mag) Time Alt. Az. Time Alt. Az. Time Alt. Az.
26 Jan 2.9 02:06:57 10° SSW 02:07:37 14° S 02:07:37 14° S visible
27 Jan 3.0 02:26:36 10° SW 02:27:26 17° SW 02:27:26 17° SW visible
28 Jan 2.3 01:12:24 10° SSW 01:14:28 18° SSE 01:15:56 13° ESE visible
28 Jan 3.7 02:46:48 10° WSW 02:47:10 13° WSW 02:47:10 13° WSW visible
29 Jan 1.1 01:32:02 10° SW 01:34:42 38° SSE 01:35:37 28° ESE visible
30 Jan 0.2 01:52:14 10° WSW 01:55:04 72° SSE 01:55:16 67° SE visible
31 Jan 1.2 02:12:40 10° W 02:14:53 49° W 02:14:53 49° W visible
01 Feb 0.4 00:57:40 10° WSW 01:00:30 72° SSE 01:03:15 11° E visible
01 Feb 2.7 02:33:10 10° W 02:34:29 24° W 02:34:29 24° W visible
02 Feb 0.2 01:18:06 10° W 01:20:57 80° N 01:22:51 19° E visible
02 Feb 3.7 02:53:37 10° W 02:54:05 14° W 02:54:05 14° W visible
03 Feb 0.2 01:38:35 10° W 01:41:26 76° N 01:42:28 35° E visible
